Location: Blairvadach
(56.2780°N, 6.9720°W)
Time: 02:11:40
(UTC+00:00)

Envisat - Pass Details

Date: 22 November 2019
Orbit: 764 x 766 km, 98.1° (Epoch: 09 December)

Event Time Altitude Azimuth Distance (km) Brightness Sun altitude
Rises 17:07:59 0° 135° (SE) 3,228 6.0 -8.0°
Reaches altitude 10° 17:10:25 10° 128° (SE) 2,305 5.2 -8.3°
Maximum altitude 17:15:04 38° 61° (ENE) 1,163 3.5 -8.9°
Drops below altitude 10° 17:19:45 10° 355° (N) 2,317 5.3 -9.5°
Sets 17:22:12 0° 348° (NNW) 3,248 6.1 -9.8°
